Theta_e
302 303 307 309 312 313 314 314 314 314 315 316 317 318 321 323 324 327 331 335 338 339 340 340 338 336 336 336 338 340 339 336 337 340 340 339 340 340 339 336 337 340 337
302 303 306 307 309 311 311 313 313 313 313 313 314 314 314 317 320 322 324 329 332 335 339 340 340 339 336 337 339 339 340 338 339 340 339 339 339 340 339 337 340 340 338
302 303 305 306 307 309 310 311 311 311 311 311 311 311 311 312 313 316 320 323 327 327 333 339 340 340 341 337 338 338 339 339 339 340 339 342 342 339 338 339 340 337 337
301 301 303 304 305 307 308 309 310 309 309 308 309 309 309 309 310 311 315 318 322 326 325 330 336 339 340 337 337 338 338 338 339 339 341 342 342 340 338 340 338 337 338
301 300 301 302 303 305 307 307 308 308 307 306 306 306 306 306 308 309 310 313 318 321 324 323 325 332 338 339 336 337 337 338 339 339 341 342 340 340 339 339 336 337 337
301 300 300 301 301 304 305 306 306 306 305 304 304 304 304 304 305 307 308 309 312 316 319 322 322 322 328 337 338 335 337 338 338 340 340 340 340 339 338 338 338 337 338
301 300 300 300 300 301 303 302 304 303 302 302 302 302 302 302 303 304 305 307 308 311 314 316 318 322 324 330 337 336 336 337 339 340 339 339 341 338 338 335 336 335 337
301 301 300 300 300 299 300 301 301 302 301 301 300 300 300 300 301 302 303 304 305 306 308 310 314 316 321 322 332 336 334 337 337 339 340 339 339 337 339 336 335 334 334
302 302 301 300 300 299 299 300 300 301 300 300 299 299 298 298 299 300 301 302 303 303 304 306 309 312 314 319 326 335 335 336 337 339 339 338 337 336 339 336 335 334 333
302 302 301 301 300 300 299 299 299 299 299 298 298 298 297 297 299 299 300 300 301 301 302 303 304 307 308 314 321 327 335 336 335 338 339 338 337 336 338 336 332 332 332
301 301 301 301 300 300 299 298 299 299 298 298 297 297 296 296 298 297 298 299 299 299 299 300 302 303 305 313 318 322 328 335 335 337 338 337 337 336 338 335 331 332 331
301 301 301 301 301 300 299 298 298 298 297 297 296 296 296 296 296 297 298 298 299 298 298 298 299 301 302 304 316 321 324 331 336 335 339 337 337 335 338 334 331 329 328
301 301 301 301 301 300 299 298 297 297 297 296 295 295 295 295 296 296 296 297 297 297 298 297 297 300 301 301 307 316 321 324 329 335 337 336 337 334 337 335 332 329 330
302 301 301 301 301 300 299 297 297 297 296 295 295 294 295 295 295 295 296 296 296 296 297 297 296 298 299 301 303 306 317 322 324 330 335 336 336 334 336 336 332 333 334
301 301 301 301 300 300 298 297 297 296 296 295 294 294 294 294 294 295 295 295 295 294 295 295 295 295 296 298 301 302 308 319 323 323 334 335 334 334 335 336 333 331 334
302 301 301 301 300 300 298 297 296 296 295 294 294 294 294 294 294 294 294 293 293 292 293 293 293 294 295 297 299 302 302 314 316 320 326 333 332 334 334 335 334 332 332
301 301 301 300 300 300 298 296 296 295 295 294 294 294 294 294 293 293 293 293 292 292 292 292 292 294 295 298 299 299 301 308 313 317 326 334 332 333 333 335 335 333 332
301 301 301 301 300 299 297 296 295 295 294 294 294 294 294 294 293 293 293 293 292 292 291 292 292 292 294 297 298 299 300 301 304 314 319 327 334 330 332 334 335 334 333
301 301 301 301 299 297 296 296 295 294 294 294 294 293 293 293 293 292 293 293 292 292 292 292 292 292 294 296 296 297 300 302 303 309 319 323 334 331 332 332 333 334 333
302 301 301 300 298 296 296 295 294 294 294 294 293 293 293 292 292 292 292 292 292 292 292 293 292 292 294 295 293 297 301 304 305 306 314 320 331 333 334 333 334 333 332
302 302 301 299 297 295 295 294 294 294 294 293 292 292 292 292 292 292 292 291 292 291 292 292 291 292 293 292 294 296 302 306 308 307 312 320 325 334 332 332 334 333 333
302 301 300 298 296 295 294 294 294 294 293 293 292 292 292 292 292 291 291 291 291 291 292 291 290 291 291 291 293 297 305 311 304 311 313 317 319 328 332 331 332 332 332
302 301 299 297 295 295 294 294 294 293 293 292 291 291 291 291 291 291 290 290 291 291 291 291 290 289 290 291 292 295 298 301 300 310 317 317 318 318 332 332 329 333 332
302 300 298 296 295 294 294 294 294 293 292 291 291 291 291 291 290 289 289 290 290 290 290 289 289 289 290 291 292 293 295 296 300 303 312 321 320 319 329 327 331 332 331
301 300 298 296 295 295 294 294 293 292 291 290 290 291 291 291 290 289 288 288 290 289 289 289 288 289 290 290 291 293 294 295 296 299 304 306 312 321 329 328 328 333 329
301 299 298 296 295 295 294 293 293 292 291 290 290 290 290 290 289 288 288 287 288 289 288 287 288 289 290 290 291 293 294 294 295 296 299 302 306 314 323 326 325 326 332
Wind_Speed
24 23 25 27 26 26 26 27 28 29 30 29 30 30 29 28 27 27 22 15 11 12 13 14 15 15 15 17 18 14 14 13 12 10 12 13 14 18 18 21 23 24 30
19 20 22 25 24 24 25 25 26 28 29 30 30 30 30 28 27 26 25 23 18 17 14 15 16 18 18 18 17 16 16 15 14 12 11 11 16 18 20 25 26 27 33
19 19 21 24 22 23 24 24 25 26 28 29 30 30 30 29 28 27 25 22 20 25 22 14 17 17 19 19 17 16 16 17 16 13 12 12 16 18 21 24 26 32 33
17 19 21 24 23 23 23 24 24 26 27 29 29 30 30 29 29 27 25 23 20 21 24 23 15 16 19 20 19 18 16 17 16 15 13 15 20 25 30 25 27 31 31
19 21 24 24 23 23 23 23 24 25 27 29 30 30 29 29 27 27 26 24 21 21 21 23 24 14 11 19 19 19 18 17 17 17 17 18 21 24 30 29 30 31 30
18 20 22 24 23 24 24 23 23 24 27 28 29 30 29 28 27 27 25 25 24 22 22 22 23 26 15 13 18 20 20 19 19 18 19 20 22 26 29 29 30 29 28
16 18 19 23 23 24 23 24 23 25 26 26 27 29 28 27 26 26 25 24 25 25 22 23 22 23 22 14 16 19 21 23 22 21 19 20 21 28 29 32 31 31 29
15 18 20 23 23 22 24 24 22 23 24 26 27 29 28 26 26 25 25 24 25 25 26 24 23 22 24 25 15 19 22 27 27 23 22 22 24 30 32 34 33 34 30
14 17 19 21 23 21 21 22 21 22 24 25 26 28 26 24 25 25 24 24 25 25 26 25 23 23 22 23 20 20 25 26 29 26 25 24 25 31 33 37 35 35 33
13 15 18 20 22 23 24 25 24 23 25 26 27 29 27 24 24 25 23 23 24 24 25 25 26 23 22 22 24 17 25 27 33 28 26 27 28 32 33 36 36 35 35
13 15 17 20 23 25 26 27 25 24 24 25 27 29 27 26 24 25 24 24 23 25 25 24 25 25 23 21 22 21 16 26 31 30 28 30 30 35 35 36 38 37 38
13 15 17 20 23 25 24 25 23 22 24 24 26 27 26 26 24 25 24 24 23 24 23 25 24 24 23 17 19 19 14 9 28 34 32 32 33 37 37 39 39 39 40
12 15 17 18 20 22 23 24 22 21 23 23 25 27 26 25 25 25 24 24 24 24 23 25 24 21 24 27 17 19 21 15 12 33 33 36 37 40 38 40 41 41 41
11 13 15 16 18 20 22 23 21 20 22 23 23 25 26 25 25 26 25 24 23 23 24 24 24 25 23 23 22 20 23 23 18 19 35 38 41 43 40 41 44 42 41
11 12 14 15 17 19 21 22 20 21 21 21 22 22 25 25 25 25 24 24 23 24 24 25 25 25 27 23 23 24 23 24 26 21 29 37 43 44 43 42 44 45 43
10 12 14 14 15 18 21 21 20 20 20 20 20 22 24 25 26 26 24 24 24 26 25 24 25 26 26 25 22 23 24 24 30 29 15 35 44 46 44 44 45 46 45
10 13 13 13 14 18 21 20 19 20 19 20 21 21 24 25 27 26 24 23 24 26 25 24 25 25 26 23 23 22 24 24 29 25 17 30 41 46 45 46 47 48 47
12 13 11 11 14 19 20 19 19 20 20 20 21 22 24 25 27 27 25 24 26 24 24 24 26 27 26 25 22 23 24 25 32 30 22 18 34 47 47 47 48 49 48
11 10 9 10 15 19 19 19 20 19 19 20 21 22 24 25 27 25 24 24 25 24 22 24 25 25 27 26 27 27 27 27 33 24 26 23 30 43 50 49 49 50 50
10 7 7 11 15 19 17 19 19 19 19 20 22 23 24 25 24 24 24 24 22 23 23 23 25 25 26 24 33 28 24 24 26 29 32 32 22 41 37 44 49 49 49
8 6 8 12 16 18 18 20 21 21 21 20 22 23 24 24 24 24 24 24 23 23 23 23 25 27 24 25 26 29 19 17 21 26 34 30 16 31 41 44 43 47 48
6 6 8 13 16 17 18 18 19 20 20 20 22 21 22 23 23 23 24 24 24 24 21 24 26 25 22 26 17 18 6 6 13 14 29 26 33 24 37 40 43 42 48
4 4 8 12 15 15 17 17 19 20 21 22 23 23 24 22 22 23 24 25 23 22 22 24 25 21 21 25 25 8 5 4 10 11 17 24 26 32 31 30 46 42 46
2 3 8 12 13 14 16 17 20 22 23 23 23 23 23 22 22 23 24 23 22 23 21 24 24 20 20 22 23 18 12 13 4 6 6 14 25 27 29 37 42 52 48
1 4 8 11 12 13 15 16 19 22 23 23 23 23 22 22 21 23 24 23 22 21 23 23 21 20 20 19 21 21 15 15 10 4 5 10 11 29 27 28 22 37 56
2 5 8 11 11 13 15 16 18 22 23 24 24 23 23 23 22 23 25 24 23 24 25 23 19 19 20 20 21 19 16 8 10 4 3 7 8 8 13 20 23 28 37
Wind_Direction
352 353 358 359 0 2 4 7 8 9 11 9 8 10 7 4 2 5 3 353 348 309 290 280 275 269 259 253 249 262 251 238 211 225 238 223 217 193 181 166 159 154 154
353 356 360 1 2 4 5 5 8 9 10 10 11 9 8 7 4 359 0 7 358 349 318 286 273 272 266 257 255 262 250 238 230 243 224 211 196 185 177 159 152 155 152
5 4 3 4 4 5 6 8 8 10 10 10 9 9 9 7 7 1 357 351 354 0 357 322 287 272 270 262 259 262 251 244 240 231 207 183 166 160 158 151 160 156 154
9 8 5 7 7 8 8 9 10 11 10 10 8 7 6 6 7 5 360 353 345 334 354 356 342 288 271 264 261 258 251 242 236 211 189 177 164 165 158 164 162 157 156
14 14 10 11 11 12 11 11 11 11 9 8 7 6 5 4 4 4 4 357 344 339 333 346 351 332 300 263 260 260 250 239 225 205 195 177 163 170 165 168 162 160 157
17 16 13 16 16 17 15 15 14 11 8 6 6 4 3 3 2 1 0 0 355 338 335 336 324 339 333 276 253 256 251 234 221 209 201 180 171 174 170 170 165 164 159
22 20 19 18 20 21 17 14 11 9 8 8 6 4 2 1 2 0 358 356 356 351 337 332 321 316 320 299 255 246 249 233 218 212 206 183 178 177 173 168 169 166 169
27 23 22 20 18 16 15 11 10 7 6 5 4 3 360 359 360 358 357 353 351 350 345 334 325 322 303 307 264 246 239 237 217 212 202 192 188 182 175 172 172 170 171
31 27 23 20 18 16 11 9 7 6 4 3 1 359 358 357 355 354 352 351 348 346 345 343 334 327 312 298 284 246 240 237 221 211 206 196 193 187 177 177 176 174 172
30 26 22 18 15 14 10 7 5 3 1 360 358 357 356 354 351 348 348 346 346 346 343 342 340 331 323 297 295 264 240 236 226 213 205 202 194 191 182 182 179 175 173
27 22 16 13 12 10 7 4 2 359 358 358 357 354 354 350 348 347 344 344 342 343 342 342 339 338 331 299 298 289 254 228 225 216 208 202 197 191 185 182 181 178 178
19 17 12 9 9 8 4 1 357 356 356 355 355 354 352 348 346 345 342 342 340 340 340 340 339 336 332 315 291 290 290 234 227 216 211 203 200 192 188 186 183 181 178
13 13 7 5 4 3 1 357 355 353 353 354 354 355 351 349 345 345 342 341 339 339 337 337 337 333 327 324 296 274 281 278 246 219 214 204 200 194 190 187 185 182 182
8 9 3 1 359 358 355 355 353 354 353 354 353 354 354 350 346 344 341 340 339 338 334 332 331 327 323 316 309 292 265 269 262 248 215 209 200 194 192 189 187 184 184
9 5 356 353 355 353 352 353 353 354 352 351 352 353 355 353 348 345 340 339 338 335 333 329 327 325 318 315 306 290 274 252 264 268 224 212 205 196 194 189 189 188 186
358 357 348 346 347 348 350 352 352 352 350 350 350 352 354 352 348 344 340 338 337 336 332 327 324 321 316 310 306 297 280 254 257 260 263 213 209 200 196 192 191 189 189
349 347 340 337 340 349 350 350 350 351 350 348 349 349 351 350 347 342 338 337 337 335 332 328 326 320 315 307 304 296 288 260 260 255 241 217 208 204 199 194 193 190 188
344 338 328 333 344 348 350 351 349 350 348 347 347 346 345 345 344 340 336 335 336 331 332 330 329 322 315 310 307 299 285 267 252 252 248 251 204 202 202 198 195 192 191
345 333 334 344 349 350 351 350 350 347 347 345 346 345 344 342 342 340 336 335 332 330 328 328 329 323 315 314 312 303 285 275 258 247 251 258 210 200 201 201 199 194 191
350 347 352 353 351 351 351 350 349 345 345 345 345 344 343 343 345 342 337 337 334 331 332 332 333 325 319 327 317 303 288 271 267 253 240 250 234 199 201 197 199 197 193
353 3 4 357 356 354 354 354 348 343 344 344 344 343 345 348 346 342 342 340 338 337 336 337 337 333 332 331 322 319 301 255 247 249 235 235 272 201 202 202 196 196 195
356 11 2 2 357 358 357 351 345 342 344 343 344 346 349 347 343 343 344 343 342 341 342 347 343 342 330 336 331 314 334 330 4 227 226 231 253 248 211 205 194 192 196
9 9 5 1 360 359 357 349 347 347 348 348 349 349 348 344 344 347 345 345 346 347 344 347 350 343 332 337 346 349 338 334 330 331 221 221 243 258 208 202 190 190 194
27 22 8 2 358 358 356 352 352 352 349 350 349 347 344 344 347 352 349 348 347 344 345 347 346 342 342 338 344 344 337 307 334 320 343 209 229 262 183 196 195 192 192
69 29 9 357 356 353 355 355 354 353 351 350 351 346 346 347 350 352 349 347 350 353 352 347 346 347 348 340 339 340 350 356 7 314 321 353 335 238 182 186 205 185 194
70 28 358 356 350 351 353 353 355 355 354 353 351 349 348 349 349 349 349 352 351 354 351 349 348 352 351 347 346 348 359 358 342 335 317 328 297 298 232 207 209 222 187